STARLINK-32234, 60414

Orbit data source: Space-Track

STARLINK-32234, 60414 is a payload satellite owned by SpaceX/Seattle (US) in LEO that was launched on Sat, 10 Aug 2024 UTC via an FALCON 9 launch vehicle from the Air Force Eastern Test Range (AFETR). Payload-class satellites include a variety of spacecraft equipped with specific instruments for various scientific and technological missions. These include communications satellites like Starlink; space stations such as the ISS; scientific satellites like the Hubble; Earth observation satellites from companies like Planet Labs, Umbra, and HawkEye 360; GPS; miniature CubeSats for education and research; and military/defense satellites.

Loading next visibility...
Identifier
60414, 2024-141S
Orbit
LEO
Country
Flag of USUS
Related business
Manufacturer
SpaceX/Seattle
Mission
Operational Commercial Communications
Bus & Motor
STARLINK V2M, Unknown motor
Mass
730 kg wet, ~700 kg dry
Launch date (UTC)
2024-08-10 (1 year ago)
Launch vehicle
FALCON 9
Launch site
Air Force Eastern Test Range (AFETR)
Object type
Payload
Rocket body
Debris
Shape & HBR
Box + 2 Pan, 17.7 m
Radar Cross Section
33.884 m², Large (>1 m²)

Expand to show TLE details & history
Last TLE update: 7 hours ago

TLE from 7 hours ago
0 STARLINK-32234
1 60414U 24141S   25299.95761685 -.00000372  00000-0 -43592-6 0  9994
2 60414  53.1595 143.9013 0001435  85.8904 274.2260 15.30189719 69106
Epoch: 2025-10-26T22:58Z
TLE epoch observation values (Epoch: 2025-10-26T22:58:58.095Z)
Latitude
-0.0001°
Longitude
123.59281°
Altitude
476.073 km
Speed
7.629 km/s
True Right ascension
09h 35m 36s
True Declination
0° 00' 00"
Sunlit
Object was in daylight at epoch
Visualization orbit readout
Latitude
Unknown
Longitude
Unknown
Altitude
Unknown
Speed
Unknown
Apparent Right ascension
Unknown
Apparent Declination
Unknown
Sunlit
N/A
Visualization observer readout
Local Sidereal Time
01:48:08
Azimuth
Unknown
Elevation
Unknown
Doppler factor
Unknown
Orbital elements
Apogee altitude
476.486 km
Perigee altitude
474.519 km
Semi-major axis
6,853.639 km
Eccentricity
0.00014
Inclination
53.1595°
RAAN
143.9013°
Arg. of periapsis
85.8904°
True anomaly
274.2096°
Mean anomaly
274.226°
Eccentric anomaly
274.2178°
Mean motion
3.82526 °/min
Orbital period
94.11 mins
BSTAR
-4.3592e-7
Loading maneuver chart data...
Computing Atmospheric mass density...
Loading historical data...
Loading historical data...
Loading historical data...
Loading historical data...
Loading historical data...
Loading historical data...
Loading historical data...

Documentation

Showing up to 5 results
|